COSMOS 2251 DEB, 33785

Orbit data source: Space-Track

COSMOS 2251 DEB, 33785 is space debris in LEO originally from a launch on Wed, 16 Jun 1993 UTC launched from the Plesetsk Missile And Space Complex (PKMTR). The debris from Iridium 33, an American commercial communications satellite, has been tracked extensively since its accidental collision with the defunct Russian satellite Cosmos 2251 in 2009. This event, occurring at high speed in low Earth orbit (LEO), generated thousands of pieces of space debris, significantly increasing the risk of further collisions. The Iridium 33 debris cloud has impacted space traffic management and orbital debris mitigation strategies, making it a subject of ongoing study in space situational awareness.

Loading next visibility...
Identifier
33785, 1993-036AA
Orbit
LEO
Country
Flag of CISCIS
Related business
Manufacturer
Unknown
Mission
Spacecraft
Bus & Motor
Unknown
Mass
Unknown
Launch date (UTC)
1993-06-16 (32 years ago)
Launch vehicle
Unknown
Launch site
Plesetsk Missile And Space Complex (PKMTR)
Object type
Payload
Rocket body
Debris
Shape & HBR
Unknown
Radar Cross Section
Small (<0.1 m²)

Expand to show TLE details & history
Last TLE update: 8 hours ago

TLE from 8 hours ago
0 COSMOS 2251 DEB
1 33785U 93036AA  25260.97021204  .00009383  00000-0  16246-2 0  9991
2 33785  73.8669 227.7654 0020991 199.2205 217.3992 14.68282990872479
Epoch: 2025-09-17T23:17Z
TLE epoch observation values (Epoch: 2025-09-17T23:17:06.32Z)
Latitude
53.31721°
Longitude
-95.92954°
Altitude
686.687 km
Speed
7.512 km/s
True Right ascension
16h 41m 56s
True Declination
53° 09' 02"
Sunlit
Object was in daylight at epoch
Visualization orbit readout
Latitude
Unknown
Longitude
Unknown
Altitude
Unknown
Speed
Unknown
Apparent Right ascension
Unknown
Apparent Declination
Unknown
Sunlit
N/A
Visualization observer readout
Local Sidereal Time
00:19:59
Azimuth
Unknown
Elevation
Unknown
Doppler factor
Unknown
Orbital elements
Apogee altitude
678.94 km
Perigee altitude
649.375 km
Semi-major axis
7,042.295 km
Eccentricity
0.0021
Inclination
73.8669°
RAAN
227.7654°
Arg. of periapsis
199.2205°
True anomaly
217.25341°
Mean anomaly
217.3992°
Eccentric anomaly
217.32627°
Mean motion
3.67259 °/min
Orbital period
98.02 mins
BSTAR
0.0016246
Loading maneuver chart data...
Computing Atmospheric mass density...

Documentation

Showing up to 5 results
|